This is the latest recevied weather packets stored in our database for station/object W1RCP. If no packets are shown the sender has not sent any weather packets the latest 10 day(s).
| Time | Temp. | Humidity | Pressure | Rain* | Wind** | Luminosity | Snow |
|---|---|---|---|---|---|---|---|
| 1788550587 | 33.89° C | 59% | 1025 hPa | 0 mm | - | 265 W/m² | - |
| 1788550283 | 35° C | 57% | 1025.1 hPa | 0 mm | - | 322 W/m² | - |
| 1788549983 | 35.56° C | 54% | 1025.2 hPa | 0 mm | - | 541 W/m² | - |
| 1788549679 | 35.56° C | 55% | 1025.3 hPa | 0 mm | - | 879 W/m² | - |
| 1788549376 | 35° C | 54% | 1025.3 hPa | 0 mm | - | 895 W/m² | - |
| 1788549072 | 34.44° C | 56% | 1025.5 hPa | 0 mm | - | 847 W/m² | - |
| 1788548767 | 35.56° C | 53% | 1025.5 hPa | 0 mm | - | 809 W/m² | - |
| 1788548463 | 35.56° C | 54% | 1025.5 hPa | 0 mm | - | 824 W/m² | - |
| 1788548159 | 35° C | 57% | 1025.4 hPa | 0 mm | - | 874 W/m² | - |
| 1788547854 | 35° C | 61% | 1025.4 hPa | 0 mm | - | 857 W/m² | - |
| 1788547548 | 33.89° C | 58% | 1025.7 hPa | 0 mm | - | 862 W/m² | - |
| 1788547244 | 34.44° C | 55% | 1025.6 hPa | 0 mm | - | 880 W/m² | - |
| 1788546944 | 35° C | 58% | 1025.7 hPa | 0 mm | - | 863 W/m² | - |
| 1788546639 | 35° C | 56% | 1025.7 hPa | 0 mm | - | 278 W/m² | - |
| 1788546335 | 35° C | 61% | 1025.8 hPa | 0 mm | - | 872 W/m² | - |
| 1788546035 | 34.44° C | 57% | 1025.7 hPa | 0 mm | - | 867 W/m² | - |
| 1788545731 | 34.44° C | 58% | 1026 hPa | 0 mm | - | 850 W/m² | - |
| 1788545431 | 33.89° C | 59% | 1025.9 hPa | 0 mm | - | 851 W/m² | - |
| 1788545131 | 33.89° C | 61% | 1026.1 hPa | 0 mm | - | 864 W/m² | - |
| 1788544826 | 33.89° C | 58% | 1026.3 hPa | 0 mm | - | 872 W/m² | - |
| 1788544520 | 33.89° C | 56% | 1026.3 hPa | 0 mm | - | 866 W/m² | - |
| 1788544219 | 33.33° C | 60% | 1026.5 hPa | 0 mm | - | 902 W/m² | - |
| 1788543914 | 32.78° C | 62% | 1026.6 hPa | 0 mm | - | 904 W/m² | - |
| 1788543611 | 32.78° C | 62% | 1026.7 hPa | 0 mm | - | 894 W/m² | - |
| 1788543311 | 33.89° C | 59% | 1027 hPa | 0 mm | - | 202 W/m² | - |
* Rain latest hour (hover to see other rain measurements)
** Current wind speed in m/s (hover to see current wind gust speed)